THORAD AGENA D DEB, 4911

Orbit data source: Space-Track

THORAD AGENA D DEB, 4911 is space debris in SSO originally from a launch on Wed, 08 Apr 1970 UTC launched from the Air Force Western Test Range (AFWTR). Debris objects in space refer to the collection of defunct objects orbiting the Earth. Examples of debris include non-operational satellites, rocket bodies, and fragments generated from explosions, collisions, or faulty payload assembly.

Loading next visibility...
Identifier
4911, 1970-025FH
Orbit
SSO
Country
Flag of USUS
Related business
Manufacturer
Unknown
Mission
Spacecraft
Bus & Motor
Unknown
Mass
Unknown
Launch date (UTC)
1970-04-08 (56 years ago)
Launch vehicle
Unknown
Launch site
Air Force Western Test Range (AFWTR)
Object type
Payload
Rocket body
Debris
Shape & HBR
Unknown shape, 0.1 m
Radar Cross Section
Medium (>0.1 m² and <1 m²)

Expand to show TLE details & history
Last TLE update: 14 hours ago

TLE from 14 hours ago
0 THORAD AGENA D DEB
1 04911U 70025FH  26255.69103192  .00001710  00000-0  63899-3 0  9997
2 04911  99.9574 149.4718 0061151  68.8110 291.9588 14.32435807884124
Epoch: 2026-09-12T16:35Z
TLE epoch observation values (Epoch: 2026-09-12T16:35:05.157Z)
Latitude
-0.00008°
Longitude
-90.99608°
Altitude
770.341 km
Speed
7.477 km/s
True Right ascension
09h 57m 53s
True Declination
0° 00' 00"
Sunlit
Object was in daylight at epoch
Visualization orbit readout
Latitude
Unknown
Longitude
Unknown
Altitude
Unknown
Speed
Unknown
Apparent Right ascension
Unknown
Apparent Declination
Unknown
Sunlit
N/A
Visualization observer readout
Local Sidereal Time
23:03:28
Azimuth
Unknown
Elevation
Unknown
Doppler factor
Unknown
Orbital elements
Apogee altitude
824.584 km
Perigee altitude
737.029 km
Semi-major axis
7,158.944 km
Eccentricity
0.00612
Inclination
99.9574°
RAAN
149.4718°
Arg. of periapsis
68.811°
True anomaly
291.30705°
Mean anomaly
291.9588°
Eccentric anomaly
291.63311°
Mean motion
3.58319 °/min
Orbital period
100.47 mins
BSTAR
0.00063899
Loading maneuver chart data...
Computing Atmospheric mass density...

Documentation

Showing up to 5 results
|